Flag for South Korea

Past Weather in Seoul, South Korea — Yesterday and Last 2 Weeks

Now
70 °F

Passing clouds.


Feels Like: 70 °F
Forecast: 75 / 53 °F
Wind: 9 mph from West

Location: Seoul / Kimp'O International Airport
Current Time: Sep 20, 2020 at 6:27:36 pm
Latest Report: Sep 20, 2020 at 6:00 pm
Visibility: N/A
Pressure30.01 "Hg
Humidity: 64%
Dew Point: 57 °F
Location of SeoulLocation

Past Weather in Seoul — Graph

°F

Seoul Temperature Yesterday

Maximum temperature yesterday: 79 °F (at 12:00 pm)
Minimum temperature yesterday: 61 °F (at 6:00 am)
Average temperature yesterday: 69 °F

High & Low Weather Summary for the Past Weeks

 TemperatureHumidityPressure
High82 °F (Sep 5, 5:00 pm)100% (Sep 6, 5:00 am)30.07 "Hg (Sep 6, 5:00 am)
Low55 °F (Sep 20, 7:00 am)30% (Sep 19, 3:00 pm)29.09 "Hg (Sep 7, 1:00 pm)
Average70 °F81%29.84 "Hg
* Reported Sep 5 5:00 pm — Sep 20 5:00 pm, Seoul. Weather by CustomWeather, © 2020

Note: Actual official high and low records may vary slightly from our data, if they occured in-between our weather recording intervals... More about our weather records

Seoul Weather History for the Previous 24 Hours

Scroll right to see more
 ConditionsComfort  
Time TempWeatherWind HumidityBarometerVisibility
5:00 pm
Sun, Sep 20
73 °FPassing clouds.9 mph57%30.01 "HgN/A
4:00 pm77 °FPassing clouds.12 mph36%30.01 "HgN/A
3:00 pm77 °FPassing clouds.9 mph42%30.01 "HgN/A
2:00 pm77 °FPassing clouds.10 mph39%30.01 "HgN/A
1:00 pm75 °FPassing clouds.7 mph41%30.04 "HgN/A
12:00 pm73 °FPassing clouds.9 mph44%30.04 "HgN/A
11:00 am73 °FPassing clouds.10 mph44%30.04 "HgN/A
10:00 am72 °FPassing clouds.9 mph44%30.07 "HgN/A
9:00 am68 °FPassing clouds.8 mph60%30.04 "HgN/A
8:00 am64 °FSunny.1 mph83%30.04 "Hg10 mi
7:00 am55 °FSunny.2 mph100%30.04 "Hg10 mi
6:00 am57 °FClear.2 mph94%30.01 "Hg10 mi
5:00 am57 °FClear.2 mph94%30.01 "Hg10 mi
4:00 am57 °FClear.3 mph94%30.01 "Hg10 mi
3:00 am61 °FClear.3 mph83%30.01 "Hg10 mi
2:00 am57 °FClear.2 mph88%30.01 "Hg10 mi
1:00 am59 °FClear.1 mph77%30.01 "Hg10 mi
12:00 am59 °FClear.2 mph77%30.01 "Hg10 mi
11:00 pm
Sat, Sep 19
61 °FClear.2 mph72%30.01 "Hg10 mi
10:00 pm64 °FClear.6 mph60%30.01 "Hg10 mi
9:00 pm66 °FClear.6 mph56%29.98 "Hg10 mi
8:00 pm66 °FClear.6 mph64%29.98 "Hg10 mi
7:00 pm70 °FClear.7 mph64%29.95 "Hg10 mi
6:00 pm73 °FPassing clouds.14 mph61%29.95 "HgN/A
Weather by CustomWeather, © 2020

See weather overview